When you browse on this site, cookies collect data to enhance your experience and personalize the content and advertising you see.
Visit our Privacy Policy to learn more. By continuing to use the site, you agree to this use of cookies and data.
EN

Hourly Weather Tot'ma

Today, 21 September, Monday

Time Temperature Precipitation Wind Pressure Humidity
00:00 +4°C° 0 mm 2 mps 743 mmHg 93%
01:00 +4°C° 0 mm 2 mps 743 mmHg 92%
02:00 +3°C° 0 mm 3 mps 742 mmHg 91%
03:00 +4°C° 0 mm 3 mps 741 mmHg 92%
04:00 +4°C° 0.6 mm 4 mps 741 mmHg 93%
05:00 +4°C° 0.6 mm 4 mps 740 mmHg 95%
06:00 +5°C° 0.6 mm 4 mps 739 mmHg 96%
07:00 +6°C° 0.9 mm 4 mps 739 mmHg 93%
08:00 +7°C° 0.9 mm 4 mps 739 mmHg 91%
09:00 +8°C° 0.9 mm 4 mps 738 mmHg 89%
10:00 +8°C° 0.1 mm 5 mps 739 mmHg 84%
11:00 +9°C° 0.1 mm 5 mps 739 mmHg 80%
12:00 +9°C° 0.1 mm 5 mps 739 mmHg 75%
13:00 +10°C° 0 mm 5 mps 739 mmHg 73%
14:00 +11°C° 0 mm 4 mps 740 mmHg 71%
15:00 +11°C° 0 mm 4 mps 740 mmHg 68%
16:00 +10°C° 0 mm 3 mps 740 mmHg 73%
17:00 +9°C° 0 mm 3 mps 741 mmHg 78%
18:00 +8°C° 0 mm 3 mps 741 mmHg 83%
19:00 +8°C° 0 mm 3 mps 741 mmHg 87%
20:00 +7°C° 0 mm 3 mps 741 mmHg 90%
21:00 +7°C° 0 mm 3 mps 741 mmHg 94%
22:00 +7°C° 0 mm 3 mps 741 mmHg 94%
23:00 +7°C° 0 mm 3 mps 740 mmHg 95%

Tomorrow, 22 September, Tuesday

Time Temperature Precipitation Wind Pressure Humidity
00:00 +7°C° 0 mm 3 mps 740 mmHg 96%
01:00 +6°C° 0 mm 4 mps 740 mmHg 93%
02:00 +6°C° 0 mm 4 mps 740 mmHg 90%
03:00 +6°C° 0 mm 4 mps 739 mmHg 87%
04:00 +7°C° 0.1 mm 4 mps 739 mmHg 89%
05:00 +8°C° 0.1 mm 5 mps 738 mmHg 90%
06:00 +9°C° 0.1 mm 5 mps 737 mmHg 92%
07:00 +9°C° 0.1 mm 5 mps 737 mmHg 90%
08:00 +10°C° 0.1 mm 5 mps 737 mmHg 89%
09:00 +10°C° 0.1 mm 5 mps 737 mmHg 87%
10:00 +12°C° 0 mm 5 mps 737 mmHg 85%
11:00 +11°C° 0 mm 6 mps 737 mmHg 82%
12:00 +13°C° 0 mm 6 mps 737 mmHg 79%
13:00 +13°C° 0 mm 6 mps 737 mmHg 78%
14:00 +13°C° 0 mm 6 mps 737 mmHg 77%
15:00 +13°C° 0 mm 5 mps 738 mmHg 77%
16:00 +13°C° 0 mm 5 mps 738 mmHg 78%
17:00 +13°C° 0 mm 5 mps 738 mmHg 80%
18:00 +12°C° 0 mm 5 mps 738 mmHg 81%
19:00 +12°C° 0 mm 5 mps 738 mmHg 83%
20:00 +12°C° 0 mm 5 mps 739 mmHg 85%
21:00 +10°C° 0 mm 5 mps 739 mmHg 87%
22:00 +11°C° 0.2 mm 4 mps 740 mmHg 88%
23:00 +11°C° 0.2 mm 4 mps 740 mmHg 89%

Day after tomorrow, 23 September, Wednesday

Time Temperature Precipitation Wind Pressure Humidity
00:00 +10°C° 0.2 mm 4 mps 740 mmHg 90%
01:00 +9°C° 0 mm 3 mps 741 mmHg 88%
02:00 +8°C° 0 mm 3 mps 742 mmHg 85%
03:00 +5°C° 0 mm 3 mps 742 mmHg 83%
04:00 +5°C° 0 mm 3 mps 743 mmHg 85%
05:00 +5°C° 0 mm 2 mps 743 mmHg 86%
06:00 +5°C° 0 mm 2 mps 744 mmHg 87%
07:00 +5°C° 0 mm 3 mps 744 mmHg 81%
08:00 +7°C° 0 mm 3 mps 745 mmHg 76%
09:00 +9°C° 0 mm 3 mps 746 mmHg 70%
10:00 +10°C° 0 mm 3 mps 746 mmHg 65%
11:00 +12°C° 0 mm 2 mps 746 mmHg 60%
12:00 +14°C° 0 mm 2 mps 746 mmHg 55%
13:00 +14°C° 0 mm 2 mps 746 mmHg 58%
14:00 +15°C° 0 mm 2 mps 747 mmHg 61%
15:00 +16°C° 0 mm 2 mps 747 mmHg 64%
16:00 +15°C° 0 mm 2 mps 747 mmHg 72%
17:00 +14°C° 0 mm 2 mps 747 mmHg 79%
18:00 +13°C° 0 mm 2 mps 747 mmHg 86%
19:00 +12°C° 0 mm 2 mps 747 mmHg 89%
20:00 +10°C° 0 mm 2 mps 747 mmHg 92%
21:00 +9°C° 0 mm 2 mps 747 mmHg 95%
22:00 +9°C° 0 mm 2 mps 747 mmHg 95%
23:00 +9°C° 0 mm 2 mps 747 mmHg 95%

24 September, Thursday

Time Temperature Precipitation Wind Pressure Humidity
00:00 +8°C° 0 mm 2 mps 747 mmHg 96%
01:00 +8°C° 0 mm 2 mps 747 mmHg 96%
02:00 +8°C° 0 mm 2 mps 747 mmHg 97%
03:00 +8°C° 0 mm 2 mps 748 mmHg 97%
04:00 +8°C° 0 mm 2 mps 748 mmHg 97%
05:00 +9°C° 0 mm 2 mps 748 mmHg 97%
06:00 +9°C° 0 mm 2 mps 748 mmHg 98%
07:00 +10°C° 0 mm 2 mps 748 mmHg 94%
08:00 +12°C° 0 mm 3 mps 748 mmHg 91%
09:00 +13°C° 0 mm 3 mps 748 mmHg 88%
10:00 +16°C° 0 mm 3 mps 748 mmHg 83%
11:00 +17°C° 0 mm 3 mps 748 mmHg 79%
12:00 +19°C° 0 mm 3 mps 749 mmHg 74%
13:00 +19°C° 0 mm 3 mps 749 mmHg 73%
14:00 +19°C° 0 mm 3 mps 749 mmHg 72%
15:00 +20°C° 0 mm 3 mps 749 mmHg 71%
16:00 +18°C° 0 mm 3 mps 749 mmHg 78%
17:00 +17°C° 0 mm 2 mps 749 mmHg 85%
18:00 +15°C° 0 mm 2 mps 749 mmHg 92%
19:00 +14°C° 0 mm 2 mps 750 mmHg 93%
20:00 +14°C° 0 mm 2 mps 750 mmHg 94%
21:00 +13°C° 0 mm 2 mps 750 mmHg 95%
22:00 +13°C° 0 mm 2 mps 750 mmHg 95%
23:00 +12°C° 0 mm 2 mps 751 mmHg 96%

25 September, Friday

Time Temperature Precipitation Wind Pressure Humidity
00:00 +12°C° 0 mm 2 mps 751 mmHg 96%
01:00 +10°C° 0 mm 2 mps 751 mmHg 96%
02:00 +10°C° 0 mm 2 mps 751 mmHg 96%
03:00 +10°C° 0 mm 2 mps 751 mmHg 95%
04:00 +9°C° 0 mm 2 mps 751 mmHg 95%
05:00 +9°C° 0 mm 2 mps 752 mmHg 95%
06:00 +9°C° 0 mm 2 mps 752 mmHg 95%
07:00 +10°C° 0 mm 2 mps 752 mmHg 91%
08:00 +12°C° 0 mm 2 mps 752 mmHg 87%
09:00 +13°C° 0 mm 2 mps 752 mmHg 82%
10:00 +15°C° 0 mm 2 mps 752 mmHg 78%
11:00 +16°C° 0 mm 3 mps 752 mmHg 74%
12:00 +17°C° 0 mm 3 mps 753 mmHg 69%
13:00 +18°C° 0 mm 3 mps 753 mmHg 68%
14:00 +19°C° 0 mm 3 mps 753 mmHg 66%
15:00 +19°C° 0 mm 3 mps 753 mmHg 64%
16:00 +18°C° 0 mm 2 mps 753 mmHg 73%
17:00 +16°C° 0 mm 2 mps 753 mmHg 81%
18:00 +14°C° 0 mm 2 mps 753 mmHg 90%
19:00 +14°C° 0 mm 2 mps 753 mmHg 91%
20:00 +13°C° 0 mm 2 mps 753 mmHg 93%
21:00 +12°C° 0 mm 2 mps 753 mmHg 94%
22:00 +12°C° 0 mm 2 mps 753 mmHg 95%
23:00 +12°C° 0 mm 2 mps 754 mmHg 95%

26 September, Saturday

Time Temperature Precipitation Wind Pressure Humidity
00:00 +10°C° 0 mm 2 mps 754 mmHg 95%
01:00 +10°C° 0 mm 2 mps 754 mmHg 96%
02:00 +10°C° 0 mm 2 mps 754 mmHg 96%
03:00 +9°C° 0 mm 2 mps 754 mmHg 96%
04:00 +9°C° 0 mm 2 mps 754 mmHg 96%
05:00 +9°C° 0 mm 2 mps 755 mmHg 96%
06:00 +9°C° 0 mm 2 mps 755 mmHg 96%
07:00 +10°C° 0 mm 2 mps 755 mmHg 92%
08:00 +13°C° 0 mm 2 mps 755 mmHg 88%
09:00 +14°C° 0 mm 2 mps 755 mmHg 84%
10:00 +16°C° 0 mm 2 mps 755 mmHg 78%
11:00 +18°C° 0 mm 2 mps 755 mmHg 73%
12:00 +19°C° 0 mm 2 mps 755 mmHg 67%
13:00 +20°C° 0 mm 2 mps 755 mmHg 67%
14:00 +20°C° 0 mm 2 mps 756 mmHg 66%
15:00 +20°C° 0 mm 2 mps 756 mmHg 66%
16:00 +19°C° 0 mm 2 mps 756 mmHg 74%
17:00 +17°C° 0 mm 2 mps 756 mmHg 83%
18:00 +15°C° 0 mm 2 mps 756 mmHg 91%
19:00 +15°C° 0 mm 2 mps 756 mmHg 92%
20:00 +14°C° 0 mm 2 mps 756 mmHg 93%
21:00 +13°C° 0 mm 2 mps 756 mmHg 94%
22:00 +13°C° 0 mm 2 mps 756 mmHg 95%
23:00 +13°C° 0 mm 2 mps 756 mmHg 95%
Show more